カタログに戻る

IRIDIUM 33 DEB

運用中PO
NORAD 34366·DEBRIS·🇺🇸 United States

打ち上げ Sep 14, 1997 から Baikonur Cosmodrome

Loading…

次のパス (今後24時間)

TLE

最新Source: Space-Track

元期: Sep 14, 2026, 02:44 UTC

1 34366U 97051FJ  26257.11430624  .00002521  00000-0  56322-3 0  9998
2 34366  86.3640 289.2887 0017101 295.0670 119.0925 14.56342973921872

AllMySatでIRIDIUM 33 DEBをリアルタイム追跡

Download on the App Store